Location: Slemon Park
(46.4340°N, 63.8219°W)
Time: 16:41:05
(UTC-03:00)

ISS - All Passes

Search period start: 19 April 2018 00:00
Search period end: 29 April 2018 00:00
Orbit: 403 x 406 km, 51.6° (Epoch: 20 April)

Date Brightness Start Highest point End Pass type
(mag) Time Alt. Az. Time Alt. Az. Time Alt. Az.
19 Apr - 10:33:57 10° SSW 10:36:37 23° SE 10:39:18 10° E daylight
19 Apr - 12:09:37 10° WSW 12:12:52 65° NNW 12:16:08 10° ENE daylight
19 Apr - 13:46:44 10° WNW 13:49:43 31° N 13:52:43 10° ENE daylight
19 Apr - 15:23:29 10° WNW 15:26:41 45° NNE 15:29:51 10° E daylight
19 Apr - 17:00:03 10° WNW 17:03:10 41° SW 17:06:17 10° SE daylight
20 Apr - 09:42:52 10° SSE 09:44:36 14° SE 09:46:20 10° ESE daylight
20 Apr - 11:17:21 10° WSW 11:20:37 81° SSE 11:23:54 10° ENE daylight
20 Apr - 12:54:17 10° WNW 12:57:20 35° N 13:00:24 10° ENE daylight
20 Apr - 14:31:14 10° WNW 14:34:20 36° N 14:37:24 10° E daylight
20 Apr - 16:07:43 10° WNW 16:11:00 71° SSW 16:14:16 10° SE daylight
20 Apr - 17:45:43 10° WSW 17:46:57 12° SW 17:48:12 10° SSW daylight
21 Apr - 10:25:16 10° SW 10:28:26 48° SE 10:31:37 10° ENE daylight
21 Apr - 12:01:49 10° W 12:04:58 42° NNW 12:08:07 10° ENE daylight
21 Apr - 13:38:55 10° WNW 13:41:56 32° N 13:44:57 10° ENE daylight
21 Apr - 15:15:27 10° WNW 15:18:45 74° NNE 15:22:02 10° ESE daylight
21 Apr - 16:52:27 10° W 16:54:57 20° SW 16:57:26 10° S daylight
22 Apr - 09:33:26 10° SSW 09:36:17 28° SE 09:39:10 10° E daylight
22 Apr - 11:09:23 10° WSW 11:12:38 57° NNW 11:15:53 10° ENE daylight
22 Apr - 12:46:32 10° WNW 12:49:31 31° N 12:52:30 10° ENE daylight
22 Apr - 14:23:13 10° WNW 14:26:26 50° NNE 14:29:39 10° E daylight
22 Apr - 15:59:50 10° WNW 16:02:51 34° SW 16:05:51 10° SSE daylight
23 Apr - 08:42:03 10° S 08:44:13 17° SE 08:46:23 10° E daylight
23 Apr - 10:17:03 10° WSW 10:20:19 85° NNW 10:23:36 10° ENE daylight
23 Apr - 11:54:04 10° WNW 11:57:05 33° N 12:00:07 10° ENE daylight
23 Apr - 13:30:57 10° WNW 13:34:03 39° NNE 13:37:11 10° E daylight
23 Apr - 15:07:26 10° WNW 15:10:40 58° SSW 15:13:54 10° SE daylight
24 Apr - 09:24:51 10° SW 09:28:04 58° SSE 09:31:18 10° ENE daylight
24 Apr - 11:01:34 10° W 11:04:40 39° NNW 11:07:47 10° ENE daylight
24 Apr - 12:38:37 10° WNW 12:41:39 33° N 12:44:40 10° ENE daylight
24 Apr - 14:15:07 10° WNW 14:18:24 85° NNE 14:21:42 10° ESE daylight
24 Apr - 15:52:20 10° W 15:54:31 17° SW 15:56:42 10° S daylight
25 Apr - 08:32:52 10° SSW 08:35:52 34° SE 08:38:52 10° ENE daylight
25 Apr - 10:09:04 10° W 10:12:17 50° NNW 10:15:29 10° ENE daylight
25 Apr - 11:46:12 10° WNW 11:49:11 31° N 11:52:11 10° ENE daylight
25 Apr - 13:22:50 10° WNW 13:26:05 57° NNE 13:29:19 10° E daylight
25 Apr - 14:59:32 10° W 15:02:25 28° SW 15:05:16 10° SSE daylight
26 Apr - 07:41:16 10° S 07:43:43 20° SE 07:46:12 10° E daylight
26 Apr - 09:16:39 10° WSW 09:19:55 74° NNW 09:23:12 10° ENE daylight
26 Apr - 10:53:43 10° WNW 10:56:43 32° N 10:59:44 10° ENE daylight
26 Apr - 12:30:31 10° WNW 12:33:41 42° NNE 12:36:49 10° E daylight
26 Apr - 14:07:03 10° WNW 14:10:13 48° SW 14:13:24 10° SE daylight
27 Apr - 06:50:28 10° SSE 06:51:39 12° SE 06:52:50 10° ESE daylight
27 Apr - 08:24:21 10° SW 08:27:36 70° SSE 08:30:52 10° ENE daylight
27 Apr - 10:01:11 10° W 10:04:16 36° N 10:07:21 10° ENE daylight
27 Apr - 11:38:11 10° WNW 11:41:14 34° N 11:44:17 10° ENE daylight
27 Apr - 13:14:39 10° WNW 13:17:57 82° SSW 13:21:13 10° ESE daylight
27 Apr - 14:52:12 10° WSW 14:53:58 14° SW 14:55:44 10° SSW daylight
28 Apr - 07:32:15 10° SW 07:35:20 41° SE 07:38:26 10° ENE daylight
28 Apr - 09:08:38 10° W 09:11:49 45° NNW 09:14:59 10° ENE daylight
28 Apr - 10:45:45 10° WNW 10:48:45 31° N 10:51:44 10° ENE daylight
28 Apr - 12:22:20 10° WNW 12:25:36 65° NNE 12:28:51 10° ESE daylight
28 Apr - 13:59:10 10° W 14:01:51 23° SW 14:04:31 10° SSE daylight
